Flag for Mongolia Weather past 2 weeks in Ulaanbaatar, Mongolia

Now
86 °F

Scattered clouds.


Feels Like: 83 °F
Forecast: 63 / 78 °F
Wind: 17 mph from South

Location: Ulan-Bator

Current Time: Jul 4, 2015 at 9:16:02 PM

Latest Report: Jul 4, 2015 at 9:00 PM


Visibility: N/A

Pressure: 29.65 "Hg (25.61 "Hg at 1298m altitude)

Humidity: 15%

Dew point: 34 °F

Location of UlaanbaatarLocation

Historic Weather in Ulaanbaatar — Graph

°F

Ulaanbaatar temperature yesterday

Maximum temperature yesterday: 88 °F (at 5:30 PM)
Minimum temperature yesterday: 50 °F (at 6:30 AM)
Average temperature yesterday: 73 °F

Past Weeks' High & Low Weather Summary

 TemperatureHumidityPressure
High90 °F (Jun 26, 12:30 PM)88% (Jun 26, 10:30 PM)30.12 "Hg (Jun 26, 10:30 PM)
Low41 °F (Jun 29, 6:00 AM)9% (Jun 29, 7:30 PM)29.47 "Hg (Jun 26, 2:30 PM)
Average68 °F35%29.84 "Hg
* Reported Jun 19 8:00 PM — Jul 4 8:00 PM, Ulaanbaatar, Weather by CustomWeather, © 2015

Note: Actual official high and low records may vary slightly from our data, if they occured in-between our weather recording intervals... More about our weather records

Advertising

Ulaanbaatar weather history for previous 24 hours

 ConditionsComfort  
Time TempWeatherWind HumidityBarometerVisibility
8:00 PM
Sat, Jul 4
88 °FScattered clouds.20 mph15%29.65 "HgN/A
7:30 PM88 °FScattered clouds.17 mph15%29.65 "HgN/A
7:00 PM90 °FScattered clouds.15 mph14%29.65 "HgN/A
6:30 PM88 °FPartly sunny.15 mph15%29.65 "HgN/A
6:00 PM90 °FPartly sunny.17 mph14%29.65 "HgN/A
5:30 PM90 °FPartly sunny.17 mph14%29.65 "HgN/A
5:00 PM88 °FPartly sunny.13 mph16%29.68 "HgN/A
4:30 PM88 °FPartly sunny.13 mph16%29.71 "HgN/A
4:00 PM88 °FPartly sunny.15 mph16%29.71 "HgN/A
3:30 PM88 °FPartly sunny.15 mph15%29.71 "HgN/A
3:00 PM86 °FPartly sunny.15 mph17%29.74 "HgN/A
2:30 PM86 °FPartly sunny.17 mph17%29.74 "HgN/A
2:00 PM86 °FPartly sunny.17 mph17%29.77 "HgN/A
1:30 PM84 °FPartly sunny.15 mph18%29.77 "HgN/A
1:00 PM82 °FPartly sunny.17 mph20%29.77 "HgN/A
12:30 PM81 °FPartly sunny.15 mph21%29.77 "HgN/A
12:00 PM79 °FPartly sunny.17 mph24%29.80 "HgN/A
11:30 AM77 °FPartly sunny.20 mph26%29.80 "HgN/A
11:00 AM77 °FPartly sunny.20 mph26%29.80 "HgN/A
10:30 AM73 °FPartly sunny.22 mph29%29.80 "HgN/A
10:00 AM73 °FPartly sunny.17 mph29%29.80 "HgN/A
9:30 AM70 °FPartly sunny.3 mph35%29.83 "HgN/A
9:00 AM68 °FPartly sunny.1 mph40%29.83 "HgN/A
8:30 AM64 °FPartly sunny.6 mph49%29.83 "HgN/A
8:00 AM63 °FPartly sunny.3 mph52%29.83 "HgN/A
7:30 AM61 °FSunny.1 mph52%29.83 "Hg10 mi
7:00 AM61 °FSunny.1 mph52%29.83 "Hg10 mi
6:30 AM61 °FClear.3 mph52%29.83 "Hg10 mi
5:00 AM61 °FClear.3 mph52%29.83 "Hg10 mi
4:30 AM63 °FClear.1 mph49%29.83 "Hg10 mi
4:00 AM64 °FMild.N/A46%29.83 "HgN/A
3:30 AM66 °FClear.3 mph43%29.83 "Hg10 mi
3:00 AM68 °FPassing clouds.10 mph35%29.83 "HgN/A
2:30 AM70 °FClear.8 mph33%29.83 "Hg10 mi
2:00 AM70 °FClear.15 mph33%29.80 "Hg10 mi
1:30 AM70 °FClear.17 mph33%29.80 "Hg10 mi
1:00 AM70 °FPassing clouds.13 mph33%29.83 "HgN/A
12:30 AM72 °FPassing clouds.10 mph31%29.80 "HgN/A
12:00 AM72 °FClear.3 mph31%29.83 "Hg10 mi
11:30 PM
Fri, Jul 3
72 °FPassing clouds.3 mph33%29.80 "HgN/A
11:00 PM73 °FPassing clouds.3 mph29%29.80 "HgN/A
10:30 PM75 °FPassing clouds.6 mph27%29.77 "HgN/A
10:00 PM77 °FPassing clouds.10 mph28%29.77 "HgN/A
9:30 PM81 °FPassing clouds.8 mph21%29.74 "HgN/A
9:00 PM82 °FPassing clouds.10 mph17%29.74 "HgN/A
Weather by CustomWeather, © 2015

See weather overviewHow to use our weather pages